[[{"header":{"parameterUnit":"m.s-1","parameterCategory":1,"la1":30.2991,"la2":30.254,"lo1":-89.0895,"lo2":-89.0444,"dy":0.0017,"dx":0.0017,"nx":28,"ny":28,"refTime":"2024-06-13T09:00:00:Z","depth":0,"parameterNumber":2,"parameterNumberName":"U-component_of_WINDS"},"data":[0,0,0,0,0,0,0,0,0,0,0,0,0,0,0,0,0,0,0,0,0,0,0,0,0,0,0,0,0,0,0,0,0,0,0,0,0,0,0,0,0,0,0,0,0,0,0,0,0,0,0,0,0,0,0,0,0,0,-1.9568,-1.9567,0,-1.9528,-1.9528,-1.9527,-1.951,-1.9511,-1.9511,-1.9511,-1.9469,-1.9468,-1.9467,0,0,0,0,0,0,0,0,0,0,0,0,0,-1.9628,-1.9627,-1.9568,-1.9567,-1.9567,-1.9528,-1.9528,-1.9527,-1.951,-1.9511,-1.9511,-1.9511,-1.9469,-1.9468,-1.9466,0,0,0,0,0,0,0,0,0,0,0,0,0,-1.9596,-1.9626,-1.9568,-1.9554,-1.9552,-1.9528,-1.9528,-1.9527,-1.951,-1.9511,-1.9511,-1.9511,-1.947,-1.9468,-1.9466,-1.9453,0,0,-1.9461,-1.946,0,0,0,0,0,0,0,0,-1.9598,-1.9594,-1.9556,-1.9555,-1.9553,-1.9524,-1.9533,-1.9502,-1.951,-1.9526,-1.9511,-1.9511,-1.9487,-1.9484,-1.9476,-1.9451,-1.9449,-1.9461,-1.946,-1.9459,-1.9458,0,0,0,0,0,0,0,-1.96,-1.9596,-1.9552,-1.9556,-1.9554,-1.9549,-1.9545,-1.9527,-1.9506,-1.9525,-1.9524,-1.9519,-1.9486,-1.9478,-1.9475,-1.9449,-1.9461,-1.9459,-1.9458,-1.9457,-1.9411,-1.9411,0,0,0,0,0,0,-1.9605,-1.9597,-1.9553,-1.9551,-1.9576,-1.9548,-1.9543,-1.9533,-1.9507,-1.9503,-1.9519,-1.9519,-1.9481,-1.9477,-1.9474,-1.9456,-1.9459,-1.9457,-1.9456,-1.9411,-1.9411,-1.9411,0,0,0,0,0,0,-1.9606,-1.9601,-1.9555,-1.9574,-1.9568,-1.9547,-1.9536,-1.9532,-1.9524,-1.9502,-1.9498,-1.9515,-1.9481,-1.9476,-1.9458,-1.9455,-1.9456,-1.9455,-1.9411,-1.9411,-1.9411,-1.9422,0,0,0,0,0,0,-1.9608,-1.9602,-1.9596,-1.9574,-1.9567,-1.954,-1.9536,-1.9532,-1.9521,-1.952,-1.9497,-1.9493,-1.9481,-1.9461,-1.9457,-1.9452,-1.9453,-1.9411,-1.9411,-1.9411,-1.9422,-1.9422,-1.9422,0,0,0,0,0,-1.961,-1.9601,-1.9596,-1.9591,-1.956,-1.954,-1.9536,-1.9522,-1.9521,-1.9516,-1.9502,-1.9494,-1.9456,-1.9459,-1.9454,-1.9449,-1.9411,-1.9411,-1.9411,-1.9422,-1.9422,-1.9422,0,0,0,0,0,0,-1.9623,-1.9598,-1.9592,-1.9575,-1.956,-1.9538,-1.953,-1.9523,-1.9507,-1.9507,-1.949,-1.9485,-1.9468,-1.9457,-1.9461,-1.9435,-1.9433,-1.9432,-1.9443,-1.9443,-1.9444,-1.9447,-1.9452,0,0,0,0,0,-1.9624,-1.9611,-1.9589,-1.9576,-1.9569,-1.9551,-1.9542,-1.9533,-1.9516,-1.9509,-1.9494,-1.9478,-1.9462,-1.9452,-1.9437,-1.942,-1.9415,-1.9414,-1.9415,-1.9415,-1.9414,-1.9405,-1.9404,-1.9409,-1.9409,-1.9409,0,0,-1.9625,-1.961,-1.9603,-1.9578,-1.9566,-1.9552,-1.9546,-1.9531,-1.9521,-1.9507,-1.9489,-1.9478,-1.9458,-1.9442,-1.9433,-1.9432,-1.9411,-1.9414,-1.9415,-1.9413,-1.9404,-1.9404,-1.9403,-1.9409,-1.9409,-1.9409,0,0,-1.9621,-1.9609,-1.9597,-1.9584,-1.9565,-1.9553,-1.955,-1.9529,-1.9521,-1.9503,-1.9493,-1.948,-1.9453,-1.944,-1.943,-1.9422,-1.9414,-1.9417,-1.9419,-1.941,-1.941,-1.9409,-1.9406,-1.9405,-1.9416,-1.9416,-1.9416,0,-1.9626,-1.9605,-1.9591,-1.9578,-1.9567,-1.9555,-1.9543,-1.9531,-1.9508,-1.9501,-1.9499,-1.9466,-1.9452,-1.9432,-1.943,-1.9423,-1.9419,-1.942,-1.9411,-1.941,-1.941,-1.9407,-1.9406,-1.9417,-1.9417,-1.9417,-1.9417,0,-1.9611,-1.9597,-1.959,-1.9568,-1.9557,-1.9544,-1.9528,-1.9519,-1.9511,-1.9499,-1.9481,-1.9464,-1.9445,-1.944,-1.9432,-1.9419,-1.9418,-1.9414,-1.9412,-1.941,-1.9407,-1.9406,-1.9418,-1.9417,-1.9417,-1.9417,0,0,-1.9613,-1.9585,-1.9583,-1.9573,-1.9551,-1.954,-1.9527,-1.9509,-1.9501,-1.9485,-1.9473,-1.9452,-1.9448,-1.9436,-1.9427,-1.9419,-1.9414,-1.9416,-1.9415,-1.9416,-1.9399,-1.9402,-1.9401,-1.9409,-1.9409,-1.9408,-1.94,0,-1.9606,-1.9582,-1.957,-1.9551,-1.9538,-1.9526,-1.9515,-1.95,-1.9489,-1.9476,-1.9464,-1.9449,-1.9445,-1.9438,-1.943,-1.9416,-1.941,-1.9417,-1.9397,-1.9397,-1.9402,-1.9399,-1.9402,-1.9396,-1.9399,-1.9399,-1.9399,0,-1.9595,-1.958,-1.956,-1.9541,-1.9535,-1.9525,-1.9507,-1.9495,-1.9478,-1.9471,-1.9459,-1.9449,-1.9434,-1.9434,-1.9413,-1.9418,-1.9409,-1.9402,-1.9401,-1.9398,-1.9398,-1.9397,-1.9393,-1.9392,-1.9397,-1.9397,-1.9397,0,-1.9598,-1.9574,-1.9559,-1.9551,-1.9528,-1.9521,-1.9511,-1.9494,-1.9484,-1.9469,-1.9463,-1.9446,-1.9437,-1.9424,-1.941,-1.941,-1.9391,-1.9389,-1.9384,-1.9384,-1.938,-1.938,-1.9375,-1.9375,-1.9375,-1.9375,-1.9375,0,-1.9592,-1.958,-1.956,-1.9551,-1.9538,-1.9523,-1.951,-1.9499,-1.9485,-1.9473,-1.9462,-1.9451,-1.9434,-1.942,-1.941,-1.9394,-1.939,-1.9384,-1.9381,-1.9385,-1.9385,-1.9378,-1.9379,-1.9375,-1.9375,-1.9375,-1.9375,0,-1.9593,-1.958,-1.9562,-1.9542,-1.9537,-1.9528,-1.951,-1.9501,-1.949,-1.9475,-1.9471,-1.9453,-1.9437,-1.9422,-1.9401,-1.9394,-1.9378,-1.9375,-1.9384,-1.9382,-1.9379,-1.9379,-1.9369,-1.9367,-1.9368,-1.9368,-1.9368,0,-1.959,-1.9581,-1.956,-1.9551,-1.9542,-1.9528,-1.9518,-1.9504,-1.9494,-1.9475,-1.9468,-1.9451,-1.9437,-1.9413,-1.9398,-1.9381,-1.9377,-1.9375,-1.9374,-1.9379,-1.9377,-1.9378,-1.9377,-1.9375,-1.9375,-1.9375,-1.9375,0,-1.9585,-1.9579,-1.9565,-1.955,-1.9538,-1.9525,-1.9512,-1.9505,-1.9488,-1.9478,-1.9462,-1.9451,-1.943,-1.9413,-1.9396,-1.9385,-1.9377,-1.9375,-1.9373,-1.9377,-1.9382,-1.9379,-1.9385,-1.9375,-1.9375,-1.9375,-1.9375,-1.9375,-1.9584,-1.9575,-1.9559,-1.9545,-1.9533,-1.9521,-1.9511,-1.9499,-1.9486,-1.9468,-1.946,-1.9444,-1.9428,-1.9403,-1.9393,-1.938,-1.9378,-1.9375,-1.9374,-1.9374,-1.9374,-1.9385,-1.9376,-1.9376,-1.9376,-1.9376,-1.9376,0,-1.9578,-1.9568,-1.9555,-1.9536,-1.9525,-1.9519,-1.9504,-1.9495,-1.9481,-1.9467,-1.9454,-1.9435,-1.942,-1.9404,-1.9387,-1.938,-1.9376,-1.9376,-1.9376,-1.9374,-1.9377,-1.938,-1.938,-1.938,-1.938,-1.938,-1.938,-1.938,-1.9574,-1.956,-1.9552,-1.9531,-1.9521,-1.9505,-1.9497,-1.9486,-1.9474,-1.9455,-1.9442,-1.9432,-1.9417,-1.9399,-1.9385,-1.9381,-1.9375,-1.9376,-1.9371,-1.9374,-1.9374,-1.9373,-1.9377,-1.9375,-1.9375,-1.9369,-1.9369,-1.9369]},{"header":{"parameterUnit":"m.s-1","parameterCategory":1,"la1":30.2991,"la2":30.254,"lo1":-89.0895,"lo2":-89.0444,"dy":0.0017,"dx":0.0017,"nx":28,"ny":28,"refTime":"2024-06-13T09:00:00:Z","depth":0,"parameterNumber":3,"parameterNumberName":"V-component_of_WINDS"},"data":[0,0,0,0,0,0,0,0,0,0,0,0,0,0,0,0,0,0,0,0,0,0,0,0,0,0,0,0,0,0,0,0,0,0,0,0,0,0,0,0,0,0,0,0,0,0,0,0,0,0,0,0,0,0,0,0,0,0,-2.554,-2.5541,0,-2.5574,-2.5575,-2.5575,-2.5576,-2.5576,-2.5575,-2.5575,-2.5606,-2.5607,-2.5608,0,0,0,0,0,0,0,0,0,0,0,0,0,-2.5473,-2.5474,-2.554,-2.5541,-2.5541,-2.5574,-2.5575,-2.5575,-2.5576,-2.5576,-2.5575,-2.5575,-2.5606,-2.5607,-2.5608,0,0,0,0,0,0,0,0,0,0,0,0,0,-2.5504,-2.5475,-2.554,-2.5546,-2.5547,-2.5574,-2.5575,-2.5575,-2.5576,-2.5576,-2.5575,-2.5575,-2.5605,-2.5607,-2.5609,-2.5632,0,0,-2.5614,-2.5615,0,0,0,0,0,0,0,0,-2.5502,-2.5507,-2.5545,-2.5545,-2.5546,-2.557,-2.5562,-2.5594,-2.5576,-2.5565,-2.5575,-2.5574,-2.5594,-2.5597,-2.5605,-2.5633,-2.5634,-2.5614,-2.5615,-2.5616,-2.5617,0,0,0,0,0,0,0,-2.55,-2.5505,-2.5554,-2.5545,-2.5546,-2.5545,-2.5549,-2.5568,-2.5582,-2.5566,-2.5566,-2.557,-2.5595,-2.5603,-2.5605,-2.5635,-2.5614,-2.5616,-2.5617,-2.5618,-2.5685,-2.5686,0,0,0,0,0,0,-2.5497,-2.5503,-2.5552,-2.5555,-2.5523,-2.5547,-2.5551,-2.5563,-2.5582,-2.5585,-2.5571,-2.557,-2.56,-2.5603,-2.5606,-2.5636,-2.5616,-2.5618,-2.5619,-2.5684,-2.5685,-2.5686,0,0,0,0,0,0,-2.5496,-2.5502,-2.5551,-2.5529,-2.5535,-2.5549,-2.5562,-2.5564,-2.5572,-2.5586,-2.5588,-2.5577,-2.56,-2.5604,-2.5626,-2.5637,-2.5619,-2.562,-2.5683,-2.5685,-2.5686,-2.5694,0,0,0,0,0,0,-2.5494,-2.5501,-2.5511,-2.5529,-2.5536,-2.5571,-2.5563,-2.5565,-2.5576,-2.5576,-2.5592,-2.5594,-2.56,-2.5623,-2.5628,-2.5639,-2.5622,-2.5683,-2.5684,-2.5685,-2.5693,-2.5695,-2.5697,0,0,0,0,0,-2.5492,-2.5511,-2.5511,-2.5517,-2.5549,-2.5572,-2.5576,-2.5583,-2.5577,-2.5586,-2.5595,-2.5594,-2.5635,-2.5625,-2.563,-2.5643,-2.5682,-2.5684,-2.5685,-2.5692,-2.5695,-2.5697,0,0,0,0,0,0,-2.5492,-2.5513,-2.5514,-2.554,-2.5554,-2.5572,-2.5584,-2.5585,-2.56,-2.5599,-2.5606,-2.5609,-2.5631,-2.5639,-2.5628,-2.5666,-2.5657,-2.566,-2.5661,-2.5664,-2.5666,-2.5664,-2.5623,0,0,0,0,0,-2.5495,-2.5513,-2.553,-2.5551,-2.5559,-2.557,-2.558,-2.5584,-2.5599,-2.5604,-2.5615,-2.5628,-2.5644,-2.5654,-2.5669,-2.5694,-2.5698,-2.5704,-2.5707,-2.5708,-2.5711,-2.5726,-2.5729,-2.5691,-2.5691,-2.5691,0,0,-2.5502,-2.5516,-2.5526,-2.5552,-2.5563,-2.5581,-2.5575,-2.5594,-2.5607,-2.5607,-2.5629,-2.5637,-2.5652,-2.5676,-2.5686,-2.5682,-2.5722,-2.571,-2.5712,-2.5713,-2.5728,-2.5731,-2.5734,-2.5692,-2.5692,-2.5692,0,0,-2.5523,-2.5535,-2.5555,-2.5567,-2.5585,-2.5593,-2.5597,-2.5615,-2.5621,-2.5644,-2.5645,-2.5659,-2.5686,-2.5697,-2.5706,-2.5733,-2.5732,-2.5737,-2.5749,-2.5763,-2.5767,-2.5769,-2.578,-2.5783,-2.5739,-2.5739,-2.5739,0,-2.5529,-2.5557,-2.5565,-2.5584,-2.5595,-2.5598,-2.5618,-2.5628,-2.565,-2.5657,-2.5652,-2.5687,-2.5697,-2.5724,-2.5731,-2.5738,-2.5743,-2.5736,-2.5766,-2.5768,-2.5771,-2.5781,-2.5785,-2.574,-2.574,-2.574,-2.574,0,-2.5563,-2.5583,-2.5596,-2.5619,-2.5632,-2.5651,-2.5661,-2.5673,-2.5676,-2.5684,-2.5707,-2.5719,-2.5737,-2.5744,-2.5746,-2.5771,-2.5768,-2.5764,-2.5756,-2.5775,-2.5785,-2.5789,-2.5741,-2.5741,-2.574,-2.574,0,0,-2.5586,-2.5614,-2.5619,-2.563,-2.565,-2.5665,-2.5684,-2.5703,-2.5714,-2.5728,-2.5745,-2.5768,-2.5765,-2.5775,-2.5779,-2.5791,-2.5813,-2.5786,-2.5786,-2.5791,-2.5842,-2.5846,-2.5851,-2.5812,-2.5813,-2.5813,-2.5842,0,-2.5611,-2.5648,-2.5655,-2.5686,-2.5705,-2.5707,-2.5724,-2.5737,-2.5745,-2.5761,-2.5769,-2.5786,-2.578,-2.5786,-2.5799,-2.5807,-2.5823,-2.5805,-2.5827,-2.5828,-2.5825,-2.5856,-2.586,-2.5886,-2.5845,-2.5846,-2.5846,0,-2.5645,-2.5663,-2.5696,-2.5715,-2.5723,-2.5738,-2.5757,-2.5772,-2.5788,-2.5793,-2.5805,-2.5807,-2.5827,-2.5816,-2.5844,-2.5831,-2.584,-2.5846,-2.5847,-2.5851,-2.5839,-2.5861,-2.5894,-2.5899,-2.5852,-2.5852,-2.5851,0,-2.566,-2.5692,-2.5716,-2.5725,-2.5748,-2.5759,-2.5768,-2.5783,-2.5795,-2.5811,-2.5818,-2.5836,-2.5845,-2.5858,-2.5865,-2.5857,-2.5892,-2.5882,-2.5897,-2.5897,-2.5905,-2.5905,-2.5942,-2.5909,-2.5909,-2.5909,-2.5908,0,-2.5688,-2.5709,-2.5724,-2.5739,-2.5762,-2.577,-2.5793,-2.5802,-2.5815,-2.5832,-2.5834,-2.5849,-2.5856,-2.5872,-2.5877,-2.59,-2.5903,-2.5908,-2.5909,-2.5909,-2.5908,-2.5916,-2.5915,-2.591,-2.5909,-2.5909,-2.5909,0,-2.5709,-2.572,-2.5748,-2.5767,-2.5773,-2.5789,-2.5805,-2.582,-2.5827,-2.5848,-2.5853,-2.5865,-2.5885,-2.5892,-2.5915,-2.5918,-2.5945,-2.5944,-2.594,-2.5941,-2.5956,-2.5955,-2.6,-2.6007,-2.5968,-2.5968,-2.5968,0,-2.5727,-2.5744,-2.5765,-2.5778,-2.5788,-2.5807,-2.5819,-2.5828,-2.584,-2.586,-2.5872,-2.5891,-2.5908,-2.5938,-2.5948,-2.5965,-2.5966,-2.598,-2.5968,-2.5968,-2.5968,-2.5967,-2.597,-2.5983,-2.5983,-2.5984,-2.5984,0,-2.5758,-2.5763,-2.5782,-2.5803,-2.5818,-2.5834,-2.585,-2.5859,-2.587,-2.5884,-2.5904,-2.5917,-2.5941,-2.5961,-2.5979,-2.5987,-2.5988,-2.5988,-2.5992,-2.5992,-2.599,-2.5993,-2.5948,-2.5987,-2.5986,-2.5986,-2.5986,-2.5986,-2.5779,-2.5794,-2.5813,-2.5834,-2.5847,-2.5862,-2.5877,-2.5887,-2.5905,-2.5927,-2.593,-2.5952,-2.5967,-2.5992,-2.6002,-2.6019,-2.6015,-2.6021,-2.6023,-2.6025,-2.6027,-2.5987,-2.6022,-2.6022,-2.6022,-2.6021,-2.6021,0,-2.5811,-2.5824,-2.5843,-2.5866,-2.5882,-2.5882,-2.59,-2.5913,-2.5933,-2.5948,-2.5965,-2.5989,-2.6008,-2.6019,-2.6038,-2.605,-2.605,-2.6055,-2.6054,-2.6057,-2.6028,-2.6023,-2.6054,-2.6054,-2.6054,-2.6054,-2.6054,-2.6054,-2.583,-2.5857,-2.5864,-2.5896,-2.5908,-2.5931,-2.5942,-2.5955,-2.5968,-2.5995,-2.6011,-2.6019,-2.6033,-2.6053,-2.6071,-2.6073,-2.6081,-2.6086,-2.6088,-2.6062,-2.6059,-2.6055,-2.6051,-2.6087,-2.6087,-2.6116,-2.6116,-2.6116]}]]